Helicity
40 89 -1 43 103 86 149 162 51 131 128 59 63 25 51 85 77 16 21 92 166 162 137 120 116 126 135 134 129 127 124 121 114 100 97 95 98 97 95 93 96 96 100 102 105 103 105 100 97
56 72 54 -14 76 142 211 67 5 11 102 40 23 20 57 119 125 90 117 96 157 160 136 120 120 125 124 129 126 117 117 114 111 102 100 104 105 102 100 100 99 98 93 90 91 86 89 92 90
64 78 24 4 35 114 198 58 -72 -14 -28 -31 -17 29 51 54 111 157 132 168 168 156 118 117 125 128 126 125 115 114 109 106 108 104 104 99 98 97 94 88 92 95 99 96 95 95 91 98 92
90 99 79 42 35 70 87 46 -32 51 12 13 7 28 88 88 104 146 276 213 195 155 130 129 138 123 128 112 112 108 108 106 105 92 82 78 73 63 66 64 67 74 81 84 84 93 96 101 98
109 94 70 54 58 176 69 84 53 173 102 48 92 71 96 128 179 257 303 253 215 177 150 132 126 125 124 114 106 107 108 102 85 76 72 68 58 65 67 67 69 71 73 77 83 80 92 93 97
87 90 62 55 3 -6 52 56 168 193 158 139 187 170 104 101 210 243 283 241 201 187 157 134 129 127 123 113 112 114 103 87 77 77 81 77 72 69 68 61 60 65 71 74 82 78 85 89 82
62 72 41 5 21 -4 36 93 211 227 147 172 180 171 83 160 220 279 281 252 224 202 183 179 144 129 128 128 121 113 103 93 90 91 89 89 79 73 59 54 52 54 65 66 70 75 77 76 83
56 63 17 23 28 34 3 163 163 206 145 187 173 64 96 98 271 312 297 273 235 222 222 201 179 158 146 135 117 109 108 104 108 111 96 85 82 51 47 39 41 43 46 52 62 66 77 86 88
86 77 42 16 56 59 56 88 147 158 169 200 170 141 84 214 365 366 332 290 259 238 217 206 184 159 168 149 117 128 126 124 125 107 91 68 31 31 32 30 32 42 51 58 63 69 73 85 77
123 49 -17 -7 19 81 46 81 155 174 189 198 254 264 283 387 376 397 342 312 274 233 199 186 164 164 168 151 149 151 141 124 117 93 66 55 38 21 24 26 46 51 61 68 76 77 75 62 41
97 65 42 80 40 27 9 75 119 166 179 272 321 365 378 373 356 371 320 321 282 214 211 166 160 166 162 158 157 155 137 141 122 97 82 51 49 32 17 11 11 8 42 20 33 39 35 41 41
68 25 56 36 33 23 31 69 100 160 180 136 241 418 433 377 389 376 333 305 281 247 205 177 174 170 159 176 161 143 147 151 129 102 89 76 51 55 44 16 3 3 6 26 28 35 43 45 34
45 52 33 25 9 29 55 29 27 84 59 138 296 381 405 387 325 301 319 310 305 265 229 210 196 199 191 201 172 155 163 155 126 119 110 86 81 54 31 19 9 13 16 25 33 38 36 36 43
105 18 22 13 10 66 58 31 63 25 77 192 315 344 340 365 332 317 290 297 305 280 257 249 223 220 222 207 188 176 171 161 154 146 116 105 79 63 48 31 23 21 25 31 31 29 41 46 40
89 10 44 49 94 103 99 7 11 34 114 212 246 317 314 299 336 350 319 314 323 304 312 277 271 270 249 223 209 205 195 187 191 151 128 116 100 77 46 29 18 9 16 35 39 42 39 36 33
156 114 40 32 150 115 135 2 19 28 150 200 284 313 324 322 357 302 278 271 301 370 341 319 298 286 278 263 241 239 220 223 203 164 154 134 107 83 55 28 15 8 29 35 32 31 33 33 26
235 137 161 139 140 163 179 27 68 81 95 102 236 295 307 293 281 285 300 309 355 388 379 354 346 330 323 291 278 265 250 244 204 198 169 139 118 85 61 40 23 27 36 34 27 25 13 1 -6
293 320 251 228 172 242 160 34 136 76 61 62 151 235 277 297 311 363 357 336 379 397 386 369 364 352 345 330 325 314 286 268 242 198 171 142 113 94 71 50 38 41 40 41 42 32 21 -11 -15
296 217 131 162 202 205 129 38 70 101 133 121 100 134 189 258 272 333 367 413 417 390 412 406 415 394 421 417 422 365 323 286 245 204 171 146 119 100 75 57 51 54 52 47 49 25 19 -13 -10
295 260 153 127 132 161 108 47 69 115 138 116 104 110 136 178 278 305 363 440 456 475 441 476 425 424 427 443 395 357 336 278 241 215 181 150 126 95 79 71 61 59 63 75 65 50 21 6 -7
209 219 195 206 167 196 138 48 61 88 97 88 112 135 179 236 333 384 416 468 501 500 512 530 481 449 459 454 449 420 425 368 311 239 191 151 126 104 94 77 69 67 75 72 58 44 48 31 12
168 184 177 171 237 137 167 -61 -4 9 60 117 70 160 232 288 309 419 493 515 536 546 541 542 520 478 477 461 420 415 375 361 260 218 180 162 132 117 103 100 91 91 89 77 59 68 55 52 48
193 95 73 167 170 171 154 114 -49 -12 52 141 117 97 119 212 370 487 569 598 547 605 600 568 543 486 466 436 412 415 371 322 274 240 207 177 152 136 121 118 109 106 95 77 75 79 84 80 82
132 239 164 144 174 159 122 164 -118 129 122 119 91 91 134 240 298 359 497 565 591 619 613 604 554 479 460 443 411 375 340 330 303 253 211 178 159 142 136 123 117 110 95 89 89 89 93 101 113
264 256 265 243 307 251 134 207 64 133 134 75 53 46 85 149 261 396 467 518 604 682 661 628 554 505 450 436 385 340 335 310 254 229 204 184 168 149 129 124 125 115 97 98 102 101 108 116 130
265 321 405 343 329 236 259 208 253 100 99 57 84 28 51 134 268 347 450 538 616 658 696 636 568 517 445 427 385 345 317 289 257 232 208 187 163 147 127 127 122 104 108 108 107 112 118 129 145
368 297 223 364 271 177 200 199 185 65 38 -8 -3 49 54 100 196 273 399 482 554 574 638 630 583 499 465 433 415 351 323 301 261 231 216 184 162 143 130 130 118 112 114 112 112 119 123 145 156
253 219 386 319 205 170 138 131 90 72 4 53 92 112 160 190 245 301 355 415 422 485 548 558 549 540 491 459 413 362 302 273 254 239 207 174 158 144 136 125 115 118 117 113 116 125 133 146 157
379 348 400 275 297 234 162 83 78 123 81 97 116 186 222 230 267 295 327 376 425 459 505 550 535 523 490 454 404 339 283 261 244 225 195 168 157 137 129 120 118 119 117 112 117 121 132 147 153
135 268 319 348 243 290 256 218 130 62 -22 -15 29 138 204 208 253 292 346 388 409 440 476 507 516 488 444 403 358 312 281 269 248 225 198 170 141 133 125 118 120 118 111 109 116 124 142 144 145
Wind_Speed
21 23 28 30 44 43 48 41 26 39 45 32 33 32 24 27 16 26 13 17 20 14 10 12 13 16 20 21 24 26 27 29 31 32 33 34 36 37 39 40 41 42 43 43 44 46 46 48 49
24 19 32 32 49 51 45 41 39 28 42 24 20 29 32 28 29 20 10 21 18 14 11 9 14 17 20 22 25 26 28 29 31 31 32 34 36 38 40 41 42 43 44 45 46 47 49 50 51
23 22 42 42 48 63 45 38 33 22 22 34 33 36 32 31 33 3 12 18 17 14 13 12 15 18 21 23 24 26 27 28 30 30 32 34 36 39 40 42 43 45 46 47 47 49 50 51 52
26 30 44 52 57 68 68 47 47 28 25 29 36 35 36 41 10 17 21 15 15 13 10 14 18 19 21 21 23 24 25 27 29 30 32 34 37 39 42 43 45 46 47 48 48 50 51 52 53
31 34 54 58 62 65 56 62 36 8 33 37 37 38 29 29 19 15 17 14 15 10 9 13 17 19 21 21 21 23 24 26 28 29 31 34 36 40 43 45 46 47 48 48 49 50 52 52 52
37 37 58 64 70 60 56 48 30 31 17 21 26 17 26 27 2 11 11 12 12 12 11 12 16 18 19 19 20 21 22 24 26 29 32 34 37 41 44 46 47 48 49 49 51 52 52 53 54
47 53 67 68 70 64 58 32 27 17 21 12 14 15 44 19 8 12 10 7 6 8 9 11 13 16 16 17 18 19 21 23 25 28 31 35 38 41 43 46 47 48 50 51 52 53 54 54 55
47 48 63 70 74 73 53 25 33 21 24 28 34 42 46 10 7 9 8 7 7 7 7 9 9 11 12 13 15 17 19 21 24 27 30 34 38 40 43 46 48 48 50 51 54 55 55 57 58
45 61 79 80 65 63 48 48 34 36 30 42 45 40 39 17 12 10 9 8 7 7 9 8 9 9 10 11 13 15 17 20 23 26 30 33 37 41 44 46 48 49 52 54 56 56 57 59 59
57 70 82 63 62 68 59 40 27 37 43 52 46 45 14 17 19 19 18 15 14 15 13 11 10 9 10 8 9 12 14 18 21 24 28 33 36 40 44 46 49 50 54 56 59 59 59 60 60
64 87 71 69 67 71 68 60 46 55 62 46 23 28 11 17 18 18 17 19 21 19 14 15 13 10 11 7 7 9 11 15 18 22 26 30 35 40 44 48 50 51 56 57 59 61 61 62 64
82 84 83 70 64 65 68 59 65 64 67 54 35 19 19 21 23 23 20 20 19 20 19 20 16 15 12 8 7 8 7 11 15 19 24 29 35 41 46 49 50 53 56 60 62 63 64 65 66
91 87 80 79 82 78 70 80 79 79 77 59 35 26 23 24 25 22 21 20 21 23 23 23 22 18 15 13 9 7 5 7 11 17 23 29 35 41 46 50 52 56 58 62 64 65 66 68 68
67 86 94 85 85 75 79 83 76 83 71 59 44 33 30 29 27 25 23 25 28 25 26 24 25 20 17 14 11 8 5 4 9 15 21 28 34 41 46 51 54 58 61 63 65 65 69 70 70
84 94 87 82 73 80 67 98 101 90 70 70 63 46 35 31 30 33 32 31 33 29 27 28 24 20 20 16 12 9 5 0 6 13 20 26 34 40 46 51 55 58 61 63 65 67 68 71 72
71 78 100 82 67 64 58 106 76 76 71 73 57 42 35 34 36 33 31 30 30 28 31 28 24 24 21 17 13 8 5 2 7 13 20 26 33 40 47 51 55 58 61 63 66 70 74 76 79
75 97 86 83 62 62 66 97 77 62 60 60 49 41 38 38 36 35 33 32 32 32 32 31 28 27 23 18 13 9 6 6 9 15 20 25 32 39 46 50 54 57 61 65 68 71 74 79 81
70 77 81 82 63 64 77 108 75 54 54 55 45 40 39 38 40 37 36 35 33 32 33 32 28 27 23 19 14 11 9 9 12 15 20 24 31 38 44 48 53 57 62 66 69 72 74 76 82
85 89 92 84 67 65 82 109 92 79 70 65 57 46 41 38 40 40 36 34 33 34 34 35 31 29 27 23 21 17 15 13 14 16 19 24 30 37 43 48 54 58 62 66 69 70 77 77 86
92 94 99 87 67 63 76 105 91 76 77 72 67 59 43 43 38 34 35 36 38 37 37 36 35 33 30 26 23 20 15 17 15 18 20 24 30 36 41 48 54 57 61 66 69 73 75 72 83
102 100 93 85 64 70 78 106 101 83 80 83 78 56 52 43 41 39 39 41 39 41 41 39 37 35 31 28 23 19 18 19 20 19 21 24 30 36 41 47 52 55 59 64 67 69 73 78 77
113 88 94 93 87 108 68 130 104 84 82 74 69 65 53 50 48 46 45 44 44 42 39 39 37 36 33 32 28 26 24 21 23 18 21 26 31 38 40 47 50 54 57 61 64 65 69 72 81
99 75 83 88 94 95 89 98 108 85 101 79 66 60 51 46 44 45 47 47 45 41 41 40 37 36 33 33 31 28 25 22 21 19 21 27 33 36 44 46 49 53 56 59 62 66 69 70 74
72 71 65 69 81 119 110 100 118 102 89 79 76 68 57 49 42 41 41 41 41 40 40 38 38 36 33 32 31 29 26 22 20 20 23 27 33 39 43 45 49 53 56 60 62 64 67 70 72
76 66 86 92 97 118 84 96 143 81 78 81 85 80 67 49 40 41 40 40 39 41 41 39 38 35 33 32 30 28 25 22 20 20 23 27 34 40 43 46 50 53 56 58 61 64 67 69 72
81 77 84 101 106 102 73 110 108 80 73 84 80 74 65 47 36 35 37 38 38 40 40 39 37 33 31 29 27 25 22 20 20 21 24 28 35 39 41 46 49 53 55 58 61 64 66 67 71
83 91 85 81 73 81 83 89 85 75 69 65 68 64 56 42 31 30 33 36 36 37 39 38 36 31 29 26 24 23 20 18 19 20 24 30 35 39 42 47 51 54 56 58 61 64 67 69 70
83 82 84 85 113 123 101 99 88 68 70 65 63 52 44 39 31 26 28 30 31 32 33 32 33 31 27 24 22 20 18 17 17 20 26 31 36 39 44 49 52 55 56 58 61 64 66 69 69
89 88 86 78 88 114 116 108 78 78 71 69 59 49 41 34 30 27 26 27 28 27 28 30 29 28 25 22 19 17 15 15 17 22 27 32 36 40 45 49 53 55 57 59 62 64 66 67 68
93 88 86 93 99 98 106 112 55 57 61 64 55 43 38 32 27 24 24 23 25 26 26 28 27 26 24 21 18 15 12 12 17 23 28 31 36 41 46 49 53 55 57 59 62 65 65 67 69
Wind_Direction
304 303 279 255 252 247 247 249 262 249 245 258 268 263 268 275 297 309 41 68 90 89 75 59 50 39 44 38 40 38 38 39 35 29 27 23 21 17 14 10 6 2 359 354 350 345 343 339 338
292 313 265 264 245 241 249 253 240 263 247 265 284 271 267 279 283 302 44 94 92 88 76 55 58 51 46 47 47 46 42 39 36 28 26 22 19 16 12 8 4 1 356 353 349 345 342 339 337
291 295 252 255 253 233 247 254 248 268 253 253 272 267 282 283 277 351 52 103 95 90 86 73 67 60 58 54 52 49 41 35 31 27 23 21 17 14 12 10 8 3 358 353 349 345 342 339 336
280 284 259 248 242 237 235 252 252 264 269 267 267 278 281 273 295 298 112 114 103 98 85 80 76 70 66 58 53 47 41 32 29 28 25 21 20 19 14 13 11 6 359 355 352 348 344 340 337
275 278 251 248 244 235 251 253 251 259 256 256 259 278 310 281 305 100 119 120 113 99 82 78 83 78 70 62 52 45 38 35 35 31 26 23 21 17 14 13 10 5 359 355 351 348 344 340 339
272 275 251 250 238 250 262 267 254 262 274 278 285 302 302 280 33 123 130 130 122 109 93 85 87 82 74 63 53 43 38 38 38 34 27 19 17 15 14 14 11 8 2 358 353 348 345 343 338
266 260 250 250 250 258 259 278 256 253 270 275 303 296 277 284 147 138 148 152 133 113 105 92 89 86 75 63 51 44 40 42 39 35 25 17 18 19 16 15 13 8 3 359 354 350 346 342 339
268 268 257 253 247 249 273 283 273 256 271 285 264 280 277 187 182 164 165 160 139 132 121 113 96 84 70 55 54 52 44 43 40 31 24 22 21 18 16 14 13 11 6 2 356 351 347 343 339
267 260 249 245 254 257 276 277 281 272 278 268 264 285 290 160 167 179 193 220 188 165 150 141 122 99 75 59 59 54 48 44 37 31 26 25 23 19 14 13 11 11 6 1 357 354 350 345 342
259 254 247 259 261 263 274 279 272 271 267 264 273 282 289 167 168 172 180 185 186 172 169 164 149 127 101 71 57 50 41 39 33 31 28 23 21 17 12 9 8 8 4 1 357 354 351 347 344
256 246 257 261 265 266 268 265 267 262 258 270 259 276 222 193 189 197 206 190 181 175 183 180 166 153 131 105 82 61 52 36 31 29 25 20 16 11 8 5 4 4 0 360 357 354 351 346 343
248 248 253 263 268 268 264 269 265 261 265 273 274 247 204 203 199 201 213 203 200 195 184 176 176 163 151 131 117 103 67 37 29 24 20 15 10 5 2 0 1 0 359 356 354 351 349 346 343
242 251 258 261 259 261 265 259 261 262 261 275 272 252 219 216 216 225 227 223 214 200 191 184 175 171 160 152 144 134 96 45 29 16 11 7 3 0 359 358 358 358 356 354 351 349 347 344 342
263 253 252 259 257 262 260 261 264 257 265 270 264 254 243 233 227 237 228 219 209 209 197 189 182 181 174 171 164 152 133 64 12 3 2 1 360 358 355 355 355 354 353 352 349 348 345 343 341
259 255 260 261 265 261 271 258 247 246 270 263 261 259 251 241 236 212 209 207 203 209 203 194 196 193 183 179 172 167 161 70 352 350 352 355 355 354 352 352 352 352 352 351 349 347 345 341 339
261 260 253 261 264 269 266 245 265 261 265 262 263 256 243 233 223 228 221 216 211 214 207 206 201 193 189 190 188 192 194 274 321 332 341 348 349 350 349 350 352 351 352 351 347 343 340 338 336
259 253 259 262 265 266 260 248 266 269 268 268 264 255 243 247 243 236 228 225 220 218 210 204 200 194 194 196 203 207 222 273 302 321 333 341 346 348 348 349 350 351 351 348 345 343 341 338 336
253 258 259 259 267 261 260 244 265 275 274 272 270 259 253 246 225 234 234 231 224 218 211 203 204 201 202 206 221 241 250 281 298 312 327 337 342 344 346 349 350 350 348 347 345 343 343 341 337
260 258 259 263 265 266 262 252 262 267 270 272 273 270 260 248 257 250 234 226 217 214 211 206 209 206 203 213 223 239 244 269 290 307 321 332 338 343 346 347 347 347 346 346 345 344 341 341 339
255 257 258 265 268 265 268 259 264 268 268 269 271 272 265 265 257 235 229 225 217 215 214 213 211 206 209 217 228 251 248 278 288 304 318 329 336 341 344 345 345 346 346 346 345 344 342 343 343
253 253 257 262 272 269 272 265 263 267 268 268 269 270 268 245 241 238 230 223 223 218 214 212 213 210 213 218 229 251 270 285 292 299 312 325 334 339 342 344 344 345 346 345 345 345 344 342 342
253 256 259 261 263 262 268 258 262 266 269 270 273 273 267 259 253 243 230 225 219 217 215 214 213 212 215 212 222 228 240 256 285 290 311 323 331 336 341 343 344 345 345 345 345 346 344 343 341
258 261 260 261 262 265 263 263 259 266 262 270 273 273 271 264 249 238 228 226 224 219 214 213 213 212 215 214 222 230 243 263 285 293 308 322 330 336 338 342 344 344 344 345 345 344 344 344 342
259 261 265 264 260 255 255 258 257 257 264 272 274 275 274 267 252 242 235 231 224 218 216 214 213 215 216 217 222 227 235 253 271 289 304 318 327 333 337 340 342 343 343 343 344 344 343 343 342
245 246 252 254 252 254 261 259 251 268 269 269 270 273 275 273 258 245 233 222 217 215 215 214 211 216 215 216 221 226 233 246 262 284 302 316 324 331 334 338 339 341 342 343 343 343 343 342 341
238 239 246 251 255 260 264 259 262 272 271 270 271 273 276 274 259 237 222 217 213 208 208 208 208 214 212 215 220 226 230 249 269 287 304 316 324 330 335 337 339 340 341 342 343 342 342 342 341
244 239 244 256 263 264 261 266 273 272 271 271 269 269 273 273 259 235 224 217 212 207 206 205 208 211 211 215 218 221 231 247 269 292 309 318 325 330 334 335 337 339 341 342 342 342 342 342 342
242 240 245 248 251 253 260 262 266 268 269 272 271 271 269 269 261 238 223 218 215 215 213 211 207 206 207 211 216 223 235 257 278 298 310 318 324 329 332 334 336 338 340 341 341 341 342 341 342
238 238 243 251 253 254 258 263 273 270 272 270 271 272 269 265 258 246 232 226 218 217 213 209 208 207 212 215 216 220 235 264 286 301 312 319 324 329 331 334 335 337 339 340 341 341 342 342 341
242 242 240 247 252 257 259 258 286 285 278 276 273 268 268 266 257 243 232 222 216 217 215 211 210 209 207 203 201 208 230 264 290 305 314 320 324 329 332 333 335 337 339 340 340 341 342 341 341